Glenwood, MN

6:44 PM CDT on July 24, 2017 (GMT -0500)
Glenwood Municipal

Weather History for KGHW - October, 2010

Change the Weather History Date:

Saturday, October 23, 2010

  Actual Average Record
Temperature  
Mean Temperature 48 °F -  
Max Temperature 51 °F 57 °F 77 °F (1963)
Min Temperature 46 °F 34 °F 19 °F (1981)
Degree Days  
Heating Degree Days 16    
Moisture  
Dew Point 41 °F    
Average Humidity 80    
Maximum Humidity 93    
Minimum Humidity 66    
Precipitation  
Precipitation 0.70 in - - ()
Sea Level Pressure  
Sea Level Pressure 29.80 in    
Wind  
Wind Speed 10 mph (NE)    
Max Wind Speed 18 mph    
Max Gust Speed 23 mph    
Visibility 10 miles    
Events Rain , Thunderstorm    
Averages and records for this station are not official NWS values.
T = Trace of Precipitation, MM = Missing Value Source: NWS Daily Summary

Daily Weather History Graph

Daily Weather History Graph

Search for Another Location

Airport or City:

Trip Planner

Search our weather history database for the weather conditions in past years. The results will help you decide how hot, cold, wet, or windy it might be!

Date:

Astronomy

Oct. 23, 2010 Rise Set
Actual Time 7:48 AM CDT 6:21 PM CDT
Civil Twilight 7:18 AM CDT 6:52 PM CDT
Nautical Twilight 6:43 AM CDT 7:26 PM CDT
Astronomical Twilight 6:09 AM CDT 8:01 PM CDT
Moon 6:18 PM CDT (10/23) 8:35 AM CDT (10/23)
Length of Visible Light 11h 34m
Length of Day
10h 33m
Full, 100% of the Moon is Illuminated
Oct 23
Full
Oct 30
Last Quarter
Nov 5
New
Nov 13
First Quarter
Nov 21
Full

Hourly Weather History & Observations

Time (CDT) Temp. Windchill Dew Point Humidity Pressure Visibility Wind Dir Wind Speed Gust Speed Precip Events Conditions
12:14 AM 46.4 °F 42.4 °F 37.4 °F 71% 29.81 in 10.0 mi NNE 8.1 mph - N/A   Clear
12:34 AM 46.4 °F 42.9 °F 37.4 °F 71% 29.82 in 10.0 mi NE 6.9 mph - N/A   Clear
12:54 AM 46.4 °F 42.9 °F 37.4 °F 71% 29.82 in 10.0 mi NE 6.9 mph - N/A   Clear
1:13 AM 46.4 °F 42.4 °F 37.4 °F 71% 29.82 in 10.0 mi NNE 8.1 mph - N/A   Clear
1:34 AM 46.4 °F 42.4 °F 39.2 °F 76% 29.82 in 10.0 mi NNE 8.1 mph - N/A   Clear
1:53 AM 48.2 °F - 39.2 °F 71% 29.81 in 10.0 mi NNE 10.4 mph - N/A   Clear
2:13 AM 48.2 °F - 37.4 °F 66% 29.81 in 10.0 mi NNE 9.2 mph - N/A   Clear
2:33 AM 48.2 °F - 37.4 °F 66% 29.81 in 10.0 mi NNE 8.1 mph - N/A   Clear
2:54 AM 48.2 °F - 37.4 °F 66% 29.80 in 10.0 mi NNE 9.2 mph - N/A   Clear
3:14 AM 48.2 °F - 37.4 °F 66% 29.79 in 10.0 mi NNE 11.5 mph - N/A   Clear
3:33 AM 48.2 °F - 37.4 °F 66% 29.80 in 10.0 mi NE 6.9 mph - N/A   Scattered Clouds
3:53 AM 48.2 °F - 37.4 °F 66% 29.81 in 10.0 mi ESE 6.9 mph - N/A   Scattered Clouds
4:14 AM 46.4 °F 42.9 °F 37.4 °F 71% 29.80 in 10.0 mi ENE 6.9 mph - N/A   Clear
4:34 AM 46.4 °F 43.5 °F 37.4 °F 71% 29.80 in 10.0 mi ENE 5.8 mph - N/A   Clear
4:53 AM 46.4 °F 42.4 °F 37.4 °F 71% 29.80 in 10.0 mi NE 8.1 mph - N/A   Clear
5:13 AM 48.2 °F - 37.4 °F 66% 29.80 in 10.0 mi East 5.8 mph - N/A   Scattered Clouds
5:33 AM 48.2 °F - 37.4 °F 66% 29.80 in 10.0 mi ENE 6.9 mph - N/A   Mostly Cloudy
5:53 AM 48.2 °F - 37.4 °F 66% 29.80 in 10.0 mi NE 8.1 mph - N/A Rain Light Rain
6:13 AM 46.4 °F 41.9 °F 39.2 °F 76% 29.80 in 10.0 mi NE 9.2 mph - 0.04 in Rain Light Rain
6:33 AM 46.4 °F 41.5 °F 41.0 °F 81% 29.80 in 10.0 mi NE 10.4 mph - 0.05 in Rain Rain
6:55 AM 46.4 °F 42.9 °F 41.0 °F 81% 29.81 in 10.0 mi NE 6.9 mph - 0.05 in Rain , Thunderstorm Light Thunderstorms and Rain
7:13 AM 46.4 °F 41.5 °F 41.0 °F 81% 29.80 in 10.0 mi NNE 10.4 mph - N/A   Light Drizzle
7:34 AM 46.4 °F 40.4 °F 41.0 °F 81% 29.78 in 10.0 mi NNE 13.8 mph - N/A Rain Light Rain
7:55 AM 46.4 °F 41.5 °F 41.0 °F 81% 29.79 in 10.0 mi NE 10.4 mph - 0.01 in Rain Light Rain
8:14 AM 46.4 °F 41.5 °F 41.0 °F 81% 29.81 in 10.0 mi NNE 10.4 mph - N/A   Mostly Cloudy
8:33 AM 46.4 °F 41.1 °F 42.8 °F 87% 29.80 in 10.0 mi NE 11.5 mph - N/A   Mostly Cloudy
8:53 AM 46.4 °F 40.4 °F 42.8 °F 87% 29.79 in 10.0 mi NNE 13.8 mph - N/A   Scattered Clouds
9:13 AM 48.2 °F - 42.8 °F 82% 29.80 in 10.0 mi NNE 12.7 mph - N/A   Mostly Cloudy
9:33 AM 48.2 °F - 42.8 °F 82% 29.81 in 10.0 mi NE 13.8 mph - N/A   Mostly Cloudy
9:53 AM 48.2 °F - 42.8 °F 82% 29.81 in 10.0 mi NE 13.8 mph - N/A   Scattered Clouds
10:14 AM 48.2 °F - 42.8 °F 82% 29.82 in 10.0 mi NE 13.8 mph 17.3 mph N/A   Mostly Cloudy
10:53 AM 50.0 °F - 42.8 °F 76% 29.81 in 10.0 mi NE 11.5 mph - N/A   Scattered Clouds
11:14 AM 51.8 °F - 44.6 °F 76% 29.81 in 10.0 mi ENE 15.0 mph - N/A   Scattered Clouds
11:53 AM 50.0 °F - 44.6 °F 82% 29.81 in 7.0 mi ENE 13.8 mph - N/A   Drizzle
12:13 PM 50.0 °F - 44.6 °F 82% 29.81 in 10.0 mi NE 16.1 mph - N/A   Overcast
12:33 PM 50.0 °F - 42.8 °F 76% 29.81 in 10.0 mi ENE 16.1 mph 19.6 mph N/A   Overcast
12:53 PM 48.2 °F - 42.8 °F 82% 29.81 in 10.0 mi ENE 13.8 mph 21.9 mph N/A Rain Light Rain
1:14 PM 48.2 °F - 42.8 °F 82% 29.80 in 10.0 mi ENE 15.0 mph - N/A Rain Light Rain
1:33 PM 48.2 °F - 44.6 °F 87% 29.79 in 10.0 mi ENE 18.4 mph - N/A   Overcast
1:53 PM 48.2 °F - 44.6 °F 87% 29.79 in 10.0 mi ENE 16.1 mph 19.6 mph N/A   Overcast
2:13 PM 48.2 °F - 42.8 °F 82% 29.79 in 10.0 mi ENE 16.1 mph - N/A   Overcast
2:34 PM 48.2 °F - 42.8 °F 82% 29.79 in 10.0 mi ENE 16.1 mph 21.9 mph N/A   Overcast
2:53 PM 46.4 °F 40.7 °F 42.8 °F 87% 29.79 in 10.0 mi ENE 12.7 mph 20.7 mph N/A   Overcast
3:13 PM 46.4 °F 40.7 °F 42.8 °F 87% 29.79 in 10.0 mi ENE 12.7 mph - 0.01 in Rain Light Rain
3:33 PM 46.4 °F 40.1 °F 42.8 °F 87% 29.79 in 10.0 mi East 15.0 mph 18.4 mph 0.01 in Rain Light Rain
3:55 PM 46.4 °F 39.8 °F 42.8 °F 87% 29.78 in 2.0 mi ENE 16.1 mph - 0.38 in Rain Heavy Rain
4:13 PM 46.4 °F 39.8 °F 42.8 °F 87% 29.78 in 7.0 mi ENE 16.1 mph - 0.05 in Rain Light Rain
4:33 PM 46.4 °F 39.8 °F 44.6 °F 93% 29.79 in 7.0 mi ENE 16.1 mph 20.7 mph 0.05 in   Light Drizzle
4:55 PM 46.4 °F 40.1 °F 44.6 °F 93% 29.79 in 10.0 mi ENE 15.0 mph 21.9 mph 0.06 in   Light Drizzle
5:14 PM 46.4 °F 39.5 °F 44.6 °F 93% 29.79 in 10.0 mi ENE 17.3 mph 21.9 mph N/A   Overcast
5:34 PM 46.4 °F 40.4 °F 44.6 °F 93% 29.79 in 10.0 mi ENE 13.8 mph 20.7 mph N/A   Overcast
5:53 PM 46.4 °F 39.8 °F 44.6 °F 93% 29.79 in 7.0 mi ENE 16.1 mph 23.0 mph N/A   Drizzle
6:14 PM 46.4 °F 39.5 °F 44.6 °F 93% 29.79 in 10.0 mi ENE 17.3 mph 21.9 mph N/A Thunderstorm Overcast
6:33 PM 46.4 °F 41.1 °F 44.6 °F 93% 29.79 in 10.0 mi East 11.5 mph - N/A Rain Rain
6:55 PM 46.4 °F 41.1 °F 44.6 °F 93% 29.80 in 10.0 mi ENE 11.5 mph 17.3 mph 0.10 in Rain Rain
7:14 PM 46.4 °F 40.4 °F 44.6 °F 93% 29.80 in 10.0 mi ENE 13.8 mph 19.6 mph 0.10 in Rain Light Rain
7:34 PM 46.4 °F 39.8 °F 42.8 °F 87% 29.80 in 7.0 mi ENE 16.1 mph - 0.17 in Rain Rain
7:55 PM 46.4 °F 40.4 °F 42.8 °F 87% 29.80 in 10.0 mi ENE 13.8 mph 21.9 mph 0.18 in   Overcast
8:13 PM 46.4 °F 41.5 °F 42.8 °F 87% 29.81 in 10.0 mi ENE 10.4 mph 17.3 mph 0.01 in Rain Rain
8:33 PM 46.4 °F 40.4 °F 42.8 °F 87% 29.81 in 10.0 mi ENE 13.8 mph 18.4 mph 0.02 in   Light Drizzle
8:55 PM 46.4 °F 40.1 °F 42.8 °F 87% 29.80 in 7.0 mi ENE 15.0 mph 19.6 mph 0.02 in   Drizzle
9:14 PM 46.4 °F 41.1 °F 42.8 °F 87% 29.81 in 10.0 mi ENE 11.5 mph - N/A   Overcast
9:34 PM 46.4 °F 40.7 °F 42.8 °F 87% 29.81 in 10.0 mi ENE 12.7 mph - N/A   Overcast
9:54 PM 46.4 °F 40.1 °F 42.8 °F 87% 29.79 in 10.0 mi ENE 15.0 mph 19.6 mph N/A   Overcast
10:14 PM 46.4 °F 40.1 °F 42.8 °F 87% 29.79 in 10.0 mi NE 15.0 mph - N/A   Overcast
10:33 PM 46.4 °F 40.4 °F 42.8 °F 87% 29.78 in 10.0 mi NE 13.8 mph 19.6 mph N/A   Overcast
10:54 PM 46.4 °F 40.1 °F 42.8 °F 87% 29.77 in 10.0 mi ENE 15.0 mph - N/A   Overcast
11:14 PM 44.6 °F 37.4 °F 42.8 °F 93% 29.77 in 10.0 mi ENE 16.1 mph 19.6 mph N/A   Overcast
11:34 PM 44.6 °F 39.2 °F 42.8 °F 93% 29.77 in 4.0 mi NE 10.4 mph - N/A   Overcast
11:53 PM 44.6 °F 38.4 °F 42.8 °F 93% 29.76 in 7.0 mi NE 12.7 mph 19.6 mph N/A   Overcast